Tracking 27419 objects as of 10-Jun-2023
HD Live streaming from Space Station
objects crossing your sky now

STARLINK-3920

Track STARLINK-3920 now!
10-day predictions
STARLINK-3920 is classified as:


NORAD ID: 52575
Int'l Code: 2022-051AR
Perigee: 546.1 km
Apogee: 547.6 km
Inclination: 53.2 °
Period: 95.4 minutes
Semi major axis: 6917 km
RCS: Unknown
Launch date: May 13, 2022
Source: United States (US)
Launch site: AIR FORCE WESTERN TEST RANGE (AFWTR)
Your satellite tracking list
Your tracking list is empty




NASA's NSSDC Master Catalog

Two Line Element Set (TLE):
1 52575U 22051AR  23160.68448334  .00000390  00000-0  42612-4 0  9997
2 52575  53.2170 306.2729 0001077  94.3083 265.8032 15.08836907 60015
Source of the keplerian elements: AFSPC